Wetterdaten: Mittwoch, 27.02.2019
Datum Zeit Temp. Auen Feucht Auen Luftdruck Regen Richtung Richtung Windben
27.02.2019 00:00 3,4 C 87 % 1032,9 hPa 0,0 mm W 262 4,8 km/h (1 Bft)
27.02.2019 00:05 3,4 C 87 % 1032,9 hPa 0,0 mm W 262 3,2 km/h (1 Bft)
27.02.2019 00:10 3,3 C 86 % 1032,8 hPa 0,0 mm W 262 4,8 km/h (1 Bft)
27.02.2019 00:15 3,0 C 87 % 1032,8 hPa 0,0 mm W 262 4,8 km/h (1 Bft)
27.02.2019 00:20 2,9 C 87 % 1032,8 hPa 0,0 mm W 262 6,4 km/h (2 Bft)
27.02.2019 00:25 3,0 C 88 % 1032,7 hPa 0,0 mm W 262 4,8 km/h (1 Bft)
27.02.2019 00:30 3,0 C 88 % 1032,7 hPa 0,0 mm W 262 4,8 km/h (1 Bft)
27.02.2019 00:35 3,0 C 88 % 1032,7 hPa 0,0 mm W 262 4,8 km/h (1 Bft)
27.02.2019 00:40 2,9 C 88 % 1032,6 hPa 0,0 mm W 262 6,4 km/h (2 Bft)
27.02.2019 00:45 2,9 C 87 % 1032,5 hPa 0,0 mm W 263 6,4 km/h (2 Bft)
27.02.2019 00:50 2,8 C 88 % 1032,4 hPa 0,0 mm W 264 8,0 km/h (2 Bft)
27.02.2019 00:55 2,7 C 88 % 1032,4 hPa 0,0 mm W 265 6,4 km/h (2 Bft)
27.02.2019 01:00 2,6 C 88 % 1032,4 hPa 0,0 mm W 267 6,4 km/h (2 Bft)
27.02.2019 01:05 2,7 C 88 % 1032,5 hPa 0,0 mm W 267 4,8 km/h (1 Bft)
27.02.2019 01:10 2,6 C 88 % 1032,5 hPa 0,0 mm W 267 3,2 km/h (1 Bft)
27.02.2019 01:15 2,4 C 88 % 1032,6 hPa 0,0 mm W 267 0,0 km/h (0 Bft)
27.02.2019 01:20 1,9 C 88 % 1032,6 hPa 0,0 mm W 267 1,6 km/h (1 Bft)
27.02.2019 01:25 1,8 C 89 % 1032,4 hPa 0,0 mm W 267 3,2 km/h (1 Bft)
27.02.2019 01:30 1,9 C 90 % 1032,4 hPa 0,0 mm W 267 3,2 km/h (1 Bft)
27.02.2019 01:35 1,8 C 89 % 1032,4 hPa 0,0 mm W 267 1,6 km/h (1 Bft)
27.02.2019 01:40 1,7 C 90 % 1032,2 hPa 0,0 mm W 267 4,8 km/h (1 Bft)
27.02.2019 01:45 1,7 C 90 % 1032,2 hPa 0,0 mm W 267 4,8 km/h (1 Bft)
27.02.2019 01:50 1,7 C 90 % 1032,1 hPa 0,0 mm W 267 6,4 km/h (2 Bft)
27.02.2019 01:55 1,7 C 90 % 1032,1 hPa 0,0 mm W 267 6,4 km/h (2 Bft)
27.02.2019 02:00 1,6 C 90 % 1032,1 hPa 0,0 mm W 267 6,4 km/h (2 Bft)
27.02.2019 02:05 1,6 C 90 % 1032,0 hPa 0,0 mm W 267 4,8 km/h (1 Bft)
27.02.2019 02:10 1,6 C 90 % 1032,0 hPa 0,0 mm W 267 4,8 km/h (1 Bft)
27.02.2019 02:15 1,6 C 90 % 1031,9 hPa 0,0 mm W 267 6,4 km/h (2 Bft)
27.02.2019 02:20 1,7 C 91 % 1032,0 hPa 0,0 mm W 267 6,4 km/h (2 Bft)
27.02.2019 02:25 1,8 C 91 % 1031,9 hPa 0,0 mm W 267 6,4 km/h (2 Bft)
27.02.2019 02:30 1,8 C 90 % 1031,8 hPa 0,0 mm W 267 4,8 km/h (1 Bft)
27.02.2019 02:35 1,8 C 90 % 1031,8 hPa 0,0 mm W 267 6,4 km/h (2 Bft)
27.02.2019 02:40 1,8 C 90 % 1031,7 hPa 0,0 mm W 268 4,8 km/h (1 Bft)
27.02.2019 02:45 1,8 C 90 % 1031,7 hPa 0,0 mm W 269 4,8 km/h (1 Bft)
27.02.2019 02:50 1,7 C 90 % 1031,7 hPa 0,0 mm W 269 4,8 km/h (1 Bft)
27.02.2019 02:55 1,6 C 90 % 1031,6 hPa 0,0 mm W 269 4,8 km/h (1 Bft)
27.02.2019 03:00 1,5 C 90 % 1031,6 hPa 0,0 mm W 269 4,8 km/h (1 Bft)
27.02.2019 03:05 1,6 C 90 % 1031,5 hPa 0,0 mm W 269 4,8 km/h (1 Bft)
27.02.2019 03:10 1,4 C 90 % 1031,6 hPa 0,0 mm W 269 0,0 km/h (0 Bft)
27.02.2019 03:15 1,2 C 90 % 1031,5 hPa 0,0 mm W 269 0,0 km/h (0 Bft)
27.02.2019 03:20 1,1 C 90 % 1031,4 hPa 0,0 mm W 269 1,6 km/h (1 Bft)
27.02.2019 03:25 1,1 C 91 % 1031,4 hPa 0,0 mm W 269 0,0 km/h (0 Bft)
27.02.2019 03:30 0,8 C 90 % 1031,4 hPa 0,0 mm W 269 1,6 km/h (1 Bft)
27.02.2019 03:35 0,7 C 91 % 1031,4 hPa 0,0 mm W 269 3,2 km/h (1 Bft)
27.02.2019 03:40 0,7 C 91 % 1031,3 hPa 0,0 mm W 269 4,8 km/h (1 Bft)
27.02.2019 03:45 0,7 C 91 % 1031,3 hPa 0,0 mm W 269 4,8 km/h (1 Bft)
27.02.2019 03:50 0,7 C 91 % 1031,2 hPa 0,0 mm W 269 6,4 km/h (2 Bft)
27.02.2019 03:55 0,7 C 91 % 1031,2 hPa 0,0 mm W 275 8,0 km/h (2 Bft)
27.02.2019 04:00 0,7 C 91 % 1031,2 hPa 0,0 mm W 275 4,8 km/h (1 Bft)
27.02.2019 04:05 0,7 C 92 % 1031,2 hPa 0,0 mm W 275 4,8 km/h (1 Bft)
27.02.2019 04:10 0,7 C 91 % 1031,2 hPa 0,0 mm W 275 6,4 km/h (2 Bft)
27.02.2019 04:15 0,7 C 92 % 1031,1 hPa 0,0 mm W 275 6,4 km/h (2 Bft)
27.02.2019 04:20 0,7 C 92 % 1031,2 hPa 0,0 mm W 275 4,8 km/h (1 Bft)
27.02.2019 04:25 0,6 C 92 % 1031,3 hPa 0,0 mm W 275 4,8 km/h (1 Bft)
27.02.2019 04:30 0,5 C 91 % 1031,2 hPa 0,0 mm W 275 3,2 km/h (1 Bft)
27.02.2019 04:35 0,3 C 91 % 1031,2 hPa 0,0 mm W 275 3,2 km/h (1 Bft)
27.02.2019 04:40 0,2 C 91 % 1031,3 hPa 0,0 mm W 275 0,0 km/h (0 Bft)
27.02.2019 04:45 0,1 C 92 % 1031,2 hPa 0,0 mm W 275 1,6 km/h (1 Bft)
27.02.2019 04:50 0,1 C 92 % 1031,3 hPa 0,0 mm W 275 3,2 km/h (1 Bft)
27.02.2019 04:55 0,1 C 92 % 1031,2 hPa 0,0 mm W 275 1,6 km/h (1 Bft)
27.02.2019 05:00 -0,2 C 92 % 1031,3 hPa 0,0 mm W 275 4,8 km/h (1 Bft)
27.02.2019 05:05 -0,2 C 92 % 1031,2 hPa 0,0 mm W 275 4,8 km/h (1 Bft)
27.02.2019 05:10 -0,1 C 92 % 1031,1 hPa 0,0 mm W 275 6,4 km/h (2 Bft)
27.02.2019 05:15 -0,1 C 92 % 1031,1 hPa 0,0 mm W 275 6,4 km/h (2 Bft)
27.02.2019 05:20 0,0 C 92 % 1031,1 hPa 0,0 mm W 275 6,4 km/h (2 Bft)
27.02.2019 05:25 0,1 C 92 % 1031,1 hPa 0,0 mm W 275 6,4 km/h (2 Bft)
27.02.2019 05:30 0,1 C 92 % 1031,2 hPa 0,0 mm W 275 4,8 km/h (1 Bft)
27.02.2019 05:35 0,0 C 92 % 1031,2 hPa 0,0 mm W 275 4,8 km/h (1 Bft)
27.02.2019 05:40 -0,1 C 92 % 1031,1 hPa 0,0 mm W 275 4,8 km/h (1 Bft)
27.02.2019 05:45 -0,1 C 92 % 1031,1 hPa 0,0 mm W 275 6,4 km/h (2 Bft)
27.02.2019 05:50 -0,1 C 92 % 1031,1 hPa 0,0 mm W 275 4,8 km/h (1 Bft)
27.02.2019 05:55 -0,1 C 92 % 1031,1 hPa 0,0 mm W 275 3,2 km/h (1 Bft)
27.02.2019 06:00 0,0 C 92 % 1031,1 hPa 0,0 mm W 275 4,8 km/h (1 Bft)
27.02.2019 06:05 0,1 C 92 % 1031,2 hPa 0,0 mm W 275 4,8 km/h (1 Bft)
27.02.2019 06:10 0,0 C 92 % 1031,2 hPa 0,0 mm W 275 1,6 km/h (1 Bft)
27.02.2019 06:15 0,1 C 92 % 1031,3 hPa 0,0 mm W 275 4,8 km/h (1 Bft)
27.02.2019 06:20 0,1 C 92 % 1031,2 hPa 0,0 mm W 275 4,8 km/h (1 Bft)
27.02.2019 06:25 -0,1 C 92 % 1031,3 hPa 0,0 mm W 275 3,2 km/h (1 Bft)
27.02.2019 06:30 -0,2 C 92 % 1031,3 hPa 0,0 mm W 275 4,8 km/h (1 Bft)
27.02.2019 06:35 -0,2 C 92 % 1031,2 hPa 0,0 mm W 275 4,8 km/h (1 Bft)
27.02.2019 06:40 -0,3 C 92 % 1031,2 hPa 0,0 mm W 275 4,8 km/h (1 Bft)
27.02.2019 06:45 -0,3 C 92 % 1031,2 hPa 0,0 mm W 275 3,2 km/h (1 Bft)
27.02.2019 06:50 -0,3 C 92 % 1031,2 hPa 0,0 mm W 275 0,0 km/h (0 Bft)
27.02.2019 06:55 -0,4 C 92 % 1031,3 hPa 0,0 mm W 275 3,2 km/h (1 Bft)
27.02.2019 07:00 -0,4 C 92 % 1031,3 hPa 0,0 mm W 275 3,2 km/h (1 Bft)
27.02.2019 07:05 -0,4 C 92 % 1031,4 hPa 0,0 mm W 275 1,6 km/h (1 Bft)
27.02.2019 07:10 -0,4 C 92 % 1031,4 hPa 0,0 mm W 275 0,0 km/h (0 Bft)
27.02.2019 07:15 -0,5 C 92 % 1031,5 hPa 0,0 mm W 275 0,0 km/h (0 Bft)
27.02.2019 07:20 -0,4 C 92 % 1031,6 hPa 0,0 mm W 275 0,0 km/h (0 Bft)
27.02.2019 07:25 -0,4 C 93 % 1031,7 hPa 0,0 mm W 275 0,0 km/h (0 Bft)
27.02.2019 07:30 0,0 C 93 % 1031,7 hPa 0,0 mm W 275 0,0 km/h (0 Bft)
27.02.2019 07:35 0,3 C 93 % 1031,7 hPa 0,0 mm W 275 0,0 km/h (0 Bft)
27.02.2019 07:40 0,1 C 92 % 1031,8 hPa 0,0 mm W 275 0,0 km/h (0 Bft)
27.02.2019 07:45 0,3 C 92 % 1031,8 hPa 0,0 mm W 275 0,0 km/h (0 Bft)
27.02.2019 07:50 0,2 C 92 % 1031,8 hPa 0,0 mm W 275 0,0 km/h (0 Bft)
27.02.2019 07:55 0,1 C 91 % 1031,9 hPa 0,0 mm W 275 0,0 km/h (0 Bft)
27.02.2019 08:00 0,3 C 92 % 1031,9 hPa 0,0 mm W 275 0,0 km/h (0 Bft)
27.02.2019 08:05 1,1 C 92 % 1031,8 hPa 0,0 mm W 275 0,0 km/h (0 Bft)
27.02.2019 08:10 1,8 C 90 % 1031,8 hPa 0,0 mm W 275 0,0 km/h (0 Bft)
27.02.2019 08:15 1,5 C 90 % 1031,8 hPa 0,0 mm W 275 0,0 km/h (0 Bft)
27.02.2019 08:20 1,8 C 89 % 1031,8 hPa 0,0 mm W 275 0,0 km/h (0 Bft)
27.02.2019 08:25 2,3 C 88 % 1031,8 hPa 0,0 mm W 275 0,0 km/h (0 Bft)
27.02.2019 08:30 1,8 C 87 % 1031,8 hPa 0,0 mm W 275 0,0 km/h (0 Bft)
27.02.2019 08:35 2,6 C 87 % 1031,7 hPa 0,0 mm W 275 0,0 km/h (0 Bft)
27.02.2019 08:40 2,3 C 86 % 1031,6 hPa 0,0 mm W 275 0,0 km/h (0 Bft)
27.02.2019 08:45 2,9 C 88 % 1031,7 hPa 0,0 mm W 275 0,0 km/h (0 Bft)
27.02.2019 08:50 3,4 C 86 % 1031,6 hPa 0,0 mm W 275 0,0 km/h (0 Bft)
27.02.2019 08:55 3,2 C 84 % 1031,7 hPa 0,0 mm W 275 0,0 km/h (0 Bft)
27.02.2019 09:00 3,2 C 85 % 1031,7 hPa 0,0 mm W 275 0,0 km/h (0 Bft)
27.02.2019 09:05 4,2 C 85 % 1031,7 hPa 0,0 mm W 275 0,0 km/h (0 Bft)
27.02.2019 09:10 4,9 C 82 % 1031,7 hPa 0,0 mm W 275 0,0 km/h (0 Bft)
27.02.2019 09:15 4,2 C 81 % 1031,6 hPa 0,0 mm W 275 0,0 km/h (0 Bft)
27.02.2019 09:20 4,2 C 82 % 1031,5 hPa 0,0 mm W 275 0,0 km/h (0 Bft)
27.02.2019 09:25 3,7 C 82 % 1031,4 hPa 0,0 mm W 275 0,0 km/h (0 Bft)
27.02.2019 09:30 3,9 C 83 % 1031,4 hPa 0,0 mm W 275 0,0 km/h (0 Bft)
27.02.2019 09:35 3,9 C 83 % 1031,4 hPa 0,0 mm W 275 0,0 km/h (0 Bft)
27.02.2019 09:40 4,6 C 82 % 1031,4 hPa 0,0 mm W 275 0,0 km/h (0 Bft)
27.02.2019 09:45 4,9 C 80 % 1031,4 hPa 0,0 mm W 275 0,0 km/h (0 Bft)
27.02.2019 09:50 5,2 C 79 % 1031,3 hPa 0,0 mm W 275 0,0 km/h (0 Bft)
27.02.2019 09:55 4,7 C 79 % 1031,3 hPa 0,0 mm W 275 0,0 km/h (0 Bft)
27.02.2019 10:00 4,9 C 81 % 1031,3 hPa 0,0 mm W 275 0,0 km/h (0 Bft)
27.02.2019 10:05 4,5 C 81 % 1031,2 hPa 0,0 mm W 275 0,0 km/h (0 Bft)
27.02.2019 10:10 4,5 C 83 % 1031,2 hPa 0,0 mm W 275 0,0 km/h (0 Bft)
27.02.2019 10:15 4,4 C 82 % 1031,1 hPa 0,0 mm W 275 0,0 km/h (0 Bft)
27.02.2019 10:20 4,4 C 83 % 1031,1 hPa 0,0 mm W 275 0,0 km/h (0 Bft)
27.02.2019 10:25 4,5 C 82 % 1031,1 hPa 0,0 mm W 275 0,0 km/h (0 Bft)
27.02.2019 10:30 4,4 C 82 % 1030,9 hPa 0,0 mm W 276 1,6 km/h (1 Bft)
27.02.2019 10:35 4,6 C 83 % 1030,9 hPa 0,0 mm N-NO 17 3,2 km/h (1 Bft)
27.02.2019 10:40 4,8 C 82 % 1030,9 hPa 0,0 mm N-NO 17 3,2 km/h (1 Bft)
27.02.2019 10:45 4,9 C 80 % 1030,9 hPa 0,0 mm N-NO 17 3,2 km/h (1 Bft)
27.02.2019 10:50 5,3 C 80 % 1030,9 hPa 0,0 mm N-NO 17 3,2 km/h (1 Bft)
27.02.2019 10:55 5,2 C 81 % 1030,8 hPa 0,0 mm N-NO 17 3,2 km/h (1 Bft)
27.02.2019 11:00 5,6 C 79 % 1030,8 hPa 0,0 mm N-NO 17 1,6 km/h (1 Bft)
27.02.2019 11:05 5,9 C 77 % 1030,6 hPa 0,0 mm N-NO 17 1,6 km/h (1 Bft)
27.02.2019 11:10 6,4 C 76 % 1030,6 hPa 0,0 mm N-NO 17 1,6 km/h (1 Bft)
27.02.2019 11:15 7,0 C 74 % 1030,6 hPa 0,0 mm N-NO 17 1,6 km/h (1 Bft)
27.02.2019 11:20 6,8 C 74 % 1030,6 hPa 0,0 mm N-NO 17 1,6 km/h (1 Bft)
27.02.2019 11:25 6,9 C 74 % 1030,4 hPa 0,0 mm N-NO 17 0,0 km/h (0 Bft)
27.02.2019 11:30 7,2 C 73 % 1030,4 hPa 0,0 mm N-NO 17 0,0 km/h (0 Bft)
27.02.2019 11:35 7,4 C 71 % 1030,3 hPa 0,0 mm N-NO 17 0,0 km/h (0 Bft)
27.02.2019 11:40 7,5 C 70 % 1030,3 hPa 0,0 mm N-NO 17 0,0 km/h (0 Bft)
27.02.2019 11:45 7,4 C 71 % 1030,2 hPa 0,0 mm N-NO 17 0,0 km/h (0 Bft)
27.02.2019 11:50 7,6 C 70 % 1030,2 hPa 0,0 mm N-NO 17 0,0 km/h (0 Bft)
27.02.2019 11:55 7,8 C 69 % 1030,1 hPa 0,0 mm N-NO 17 0,0 km/h (0 Bft)
27.02.2019 12:00 7,8 C 69 % 1030,0 hPa 0,0 mm N-NO 17 0,0 km/h (0 Bft)
27.02.2019 12:05 8,0 C 69 % 1030,0 hPa 0,0 mm N-NO 17 0,0 km/h (0 Bft)
27.02.2019 12:10 8,1 C 67 % 1029,9 hPa 0,0 mm N-NO 17 0,0 km/h (0 Bft)
27.02.2019 12:15 8,3 C 67 % 1029,8 hPa 0,0 mm N-NO 17 1,6 km/h (1 Bft)
27.02.2019 12:20 8,4 C 66 % 1029,8 hPa 0,0 mm N-NO 17 0,0 km/h (0 Bft)
27.02.2019 12:25 7,8 C 68 % 1029,7 hPa 0,0 mm N-NO 17 0,0 km/h (0 Bft)
27.02.2019 12:30 8,2 C 67 % 1029,6 hPa 0,0 mm N-NO 17 0,0 km/h (0 Bft)
27.02.2019 12:35 8,1 C 66 % 1029,6 hPa 0,0 mm N-NO 17 0,0 km/h (0 Bft)
27.02.2019 12:40 8,3 C 66 % 1029,5 hPa 0,0 mm N-NO 17 1,6 km/h (1 Bft)
27.02.2019 12:45 8,9 C 64 % 1029,5 hPa 0,0 mm N-NO 17 3,2 km/h (1 Bft)
27.02.2019 12:50 8,4 C 64 % 1029,4 hPa 0,0 mm N-NO 17 1,6 km/h (1 Bft)
27.02.2019 12:55 8,6 C 64 % 1029,3 hPa 0,0 mm N-NO 17 0,0 km/h (0 Bft)
27.02.2019 13:00 8,9 C 62 % 1029,3 hPa 0,0 mm N-NO 17 0,0 km/h (0 Bft)
27.02.2019 13:05 9,3 C 60 % 1029,1 hPa 0,0 mm N-NO 17 0,0 km/h (0 Bft)
27.02.2019 13:10 9,6 C 58 % 1028,9 hPa 0,0 mm N-NO 17 0,0 km/h (0 Bft)
27.02.2019 13:15 9,6 C 58 % 1028,9 hPa 0,0 mm N-NO 17 0,0 km/h (0 Bft)
27.02.2019 13:20 9,4 C 57 % 1028,9 hPa 0,0 mm N-NO 17 0,0 km/h (0 Bft)
27.02.2019 13:25 9,6 C 57 % 1028,8 hPa 0,0 mm N-NO 17 1,6 km/h (1 Bft)
27.02.2019 13:30 9,2 C 58 % 1028,8 hPa 0,0 mm N-NO 17 0,0 km/h (0 Bft)
27.02.2019 13:35 9,1 C 58 % 1028,6 hPa 0,0 mm N-NO 17 0,0 km/h (0 Bft)
27.02.2019 13:40 9,2 C 60 % 1028,5 hPa 0,0 mm N-NO 17 0,0 km/h (0 Bft)
27.02.2019 13:45 9,1 C 60 % 1028,4 hPa 0,0 mm N-NO 17 0,0 km/h (0 Bft)
27.02.2019 13:50 9,5 C 59 % 1028,5 hPa 0,0 mm N-NO 17 0,0 km/h (0 Bft)
27.02.2019 13:55 9,7 C 57 % 1028,3 hPa 0,0 mm N-NO 17 1,6 km/h (1 Bft)
27.02.2019 14:00 9,6 C 57 % 1028,2 hPa 0,0 mm N-NO 17 1,6 km/h (1 Bft)
27.02.2019 14:05 7,7 C 62 % 1028,2 hPa 0,0 mm N-NO 17 3,2 km/h (1 Bft)
27.02.2019 14:10 7,8 C 60 % 1028,1 hPa 0,0 mm N-NO 17 0,0 km/h (0 Bft)
27.02.2019 14:15 7,8 C 61 % 1028,0 hPa 0,0 mm N-NO 17 0,0 km/h (0 Bft)
27.02.2019 14:20 7,4 C 62 % 1028,0 hPa 0,0 mm N-NO 17 0,0 km/h (0 Bft)
27.02.2019 14:25 8,0 C 61 % 1028,0 hPa 0,0 mm N-NO 17 0,0 km/h (0 Bft)
27.02.2019 14:30 8,7 C 57 % 1027,9 hPa 0,0 mm N-NO 17 0,0 km/h (0 Bft)
27.02.2019 14:35 7,8 C 59 % 1027,8 hPa 0,0 mm N-NO 17 1,6 km/h (1 Bft)
27.02.2019 14:40 8,2 C 60 % 1027,8 hPa 0,0 mm N-NO 29 3,2 km/h (1 Bft)
27.02.2019 14:45 8,1 C 59 % 1027,7 hPa 0,0 mm N-NO 29 3,2 km/h (1 Bft)
27.02.2019 14:50 7,8 C 63 % 1027,7 hPa 0,0 mm N-NO 29 1,6 km/h (1 Bft)
27.02.2019 14:55 7,7 C 63 % 1027,7 hPa 0,0 mm N-NO 30 4,8 km/h (1 Bft)
27.02.2019 15:00 7,9 C 62 % 1027,6 hPa 0,0 mm N-NO 30 3,2 km/h (1 Bft)
27.02.2019 15:05 8,0 C 61 % 1027,5 hPa 0,0 mm N-NO 30 3,2 km/h (1 Bft)
27.02.2019 15:10 8,3 C 59 % 1027,6 hPa 0,0 mm N-NO 30 0,0 km/h (0 Bft)
27.02.2019 15:15 9,3 C 53 % 1027,5 hPa 0,0 mm N-NO 30 1,6 km/h (1 Bft)
27.02.2019 15:20 9,8 C 50 % 1027,5 hPa 0,0 mm N-NO 30 1,6 km/h (1 Bft)
27.02.2019 15:25 9,7 C 52 % 1027,5 hPa 0,0 mm N-NO 30 1,6 km/h (1 Bft)
27.02.2019 15:30 9,3 C 54 % 1027,3 hPa 0,0 mm N-NO 30 1,6 km/h (1 Bft)
27.02.2019 15:35 9,1 C 55 % 1027,3 hPa 0,0 mm N-NO 30 1,6 km/h (1 Bft)
27.02.2019 15:40 7,6 C 62 % 1027,3 hPa 0,0 mm N-NO 30 0,0 km/h (0 Bft)
27.02.2019 15:45 7,8 C 60 % 1027,2 hPa 0,0 mm N-NO 30 1,6 km/h (1 Bft)
27.02.2019 15:50 8,2 C 59 % 1027,1 hPa 0,0 mm N-NO 30 0,0 km/h (0 Bft)
27.02.2019 15:55 8,1 C 60 % 1027,1 hPa 0,0 mm N-NO 30 1,6 km/h (1 Bft)
27.02.2019 16:00 7,7 C 61 % 1027,0 hPa 0,0 mm N-NO 30 0,0 km/h (0 Bft)
27.02.2019 16:05 7,5 C 63 % 1027,0 hPa 0,0 mm N-NO 30 0,0 km/h (0 Bft)
27.02.2019 16:10 7,4 C 63 % 1026,9 hPa 0,0 mm N-NO 30 0,0 km/h (0 Bft)
27.02.2019 16:15 7,8 C 61 % 1026,8 hPa 0,0 mm N-NO 30 1,6 km/h (1 Bft)
27.02.2019 16:20 8,2 C 59 % 1026,8 hPa 0,0 mm N-NO 30 0,0 km/h (0 Bft)
27.02.2019 16:25 8,3 C 59 % 1026,8 hPa 0,0 mm SO 142 3,2 km/h (1 Bft)
27.02.2019 16:30 7,4 C 61 % 1026,7 hPa 0,0 mm SO 142 1,6 km/h (1 Bft)
27.02.2019 16:35 7,6 C 61 % 1026,7 hPa 0,0 mm SO 142 0,0 km/h (0 Bft)
27.02.2019 16:40 7,6 C 62 % 1026,5 hPa 0,0 mm SO 142 1,6 km/h (1 Bft)
27.02.2019 16:45 7,2 C 63 % 1026,5 hPa 0,0 mm SO 142 1,6 km/h (1 Bft)
27.02.2019 16:50 7,4 C 63 % 1026,5 hPa 0,0 mm SO 142 0,0 km/h (0 Bft)
27.02.2019 16:55 7,8 C 61 % 1026,5 hPa 0,0 mm SO 142 0,0 km/h (0 Bft)
27.02.2019 17:00 7,4 C 63 % 1026,5 hPa 0,0 mm SO 142 1,6 km/h (1 Bft)
27.02.2019 17:05 7,2 C 64 % 1026,4 hPa 0,0 mm SO 142 0,0 km/h (0 Bft)
27.02.2019 17:10 6,4 C 68 % 1026,4 hPa 0,0 mm SO 142 0,0 km/h (0 Bft)
27.02.2019 17:15 6,2 C 70 % 1026,3 hPa 0,0 mm SO 142 0,0 km/h (0 Bft)
27.02.2019 17:20 6,3 C 70 % 1026,2 hPa 0,0 mm SO 142 0,0 km/h (0 Bft)
27.02.2019 17:25 5,7 C 70 % 1026,1 hPa 0,0 mm SO 142 1,6 km/h (1 Bft)
27.02.2019 17:30 5,9 C 70 % 1026,1 hPa 0,0 mm SO 142 1,6 km/h (1 Bft)
27.02.2019 17:35 6,2 C 70 % 1026,2 hPa 0,0 mm SO 142 3,2 km/h (1 Bft)
27.02.2019 17:40 5,8 C 70 % 1026,2 hPa 0,0 mm SO 142 3,2 km/h (1 Bft)
27.02.2019 17:45 5,2 C 72 % 1026,1 hPa 0,0 mm S-SW 194 3,2 km/h (1 Bft)
27.02.2019 17:50 5,1 C 74 % 1026,1 hPa 0,0 mm S-SW 194 3,2 km/h (1 Bft)
27.02.2019 17:55 4,9 C 73 % 1025,9 hPa 0,0 mm S-SW 194 4,8 km/h (1 Bft)
27.02.2019 18:00 4,3 C 75 % 1026,0 hPa 0,0 mm S-SW 194 3,2 km/h (1 Bft)
27.02.2019 18:05 4,0 C 77 % 1026,0 hPa 0,0 mm S-SW 194 4,8 km/h (1 Bft)
27.02.2019 18:10 4,0 C 78 % 1026,0 hPa 0,0 mm S-SW 194 4,8 km/h (1 Bft)
27.02.2019 18:15 4,1 C 78 % 1026,0 hPa 0,0 mm S-SW 195 6,4 km/h (2 Bft)
27.02.2019 18:20 3,9 C 78 % 1026,1 hPa 0,0 mm S-SW 195 4,8 km/h (1 Bft)
27.02.2019 18:25 3,9 C 79 % 1026,1 hPa 0,0 mm S-SW 195 4,8 km/h (1 Bft)
27.02.2019 18:30 3,9 C 79 % 1026,1 hPa 0,0 mm W-SW 250 6,4 km/h (2 Bft)
27.02.2019 18:35 3,9 C 79 % 1026,0 hPa 0,0 mm W-SW 250 4,8 km/h (1 Bft)
27.02.2019 18:40 3,8 C 79 % 1026,1 hPa 0,0 mm W-SW 250 6,4 km/h (2 Bft)
27.02.2019 18:45 3,7 C 79 % 1026,1 hPa 0,0 mm W-SW 250 6,4 km/h (2 Bft)
27.02.2019 18:50 3,4 C 79 % 1026,1 hPa 0,0 mm W-SW 250 4,8 km/h (1 Bft)
27.02.2019 18:55 3,1 C 80 % 1026,1 hPa 0,0 mm W-SW 250 4,8 km/h (1 Bft)
27.02.2019 19:00 3,0 C 81 % 1026,0 hPa 0,0 mm W-SW 250 4,8 km/h (1 Bft)
27.02.2019 19:05 3,0 C 81 % 1026,0 hPa 0,0 mm W-SW 250 6,4 km/h (2 Bft)
27.02.2019 19:10 3,1 C 82 % 1025,9 hPa 0,0 mm W-SW 250 6,4 km/h (2 Bft)
27.02.2019 19:15 2,9 C 81 % 1025,9 hPa 0,0 mm W-SW 250 4,8 km/h (1 Bft)
27.02.2019 19:20 2,7 C 82 % 1025,9 hPa 0,0 mm W-SW 250 4,8 km/h (1 Bft)
27.02.2019 19:25 2,8 C 82 % 1025,9 hPa 0,0 mm W-SW 250 6,4 km/h (2 Bft)
27.02.2019 19:30 2,8 C 82 % 1025,8 hPa 0,0 mm W-SW 250 4,8 km/h (1 Bft)
27.02.2019 19:35 2,7 C 83 % 1025,8 hPa 0,0 mm W-SW 250 8,0 km/h (2 Bft)
27.02.2019 19:40 2,6 C 83 % 1025,8 hPa 0,0 mm W-SW 250 6,4 km/h (2 Bft)
27.02.2019 19:45 2,7 C 83 % 1025,7 hPa 0,0 mm W 261 9,7 km/h (2 Bft)
27.02.2019 19:50 2,6 C 83 % 1025,7 hPa 0,0 mm W 261 6,4 km/h (2 Bft)
27.02.2019 19:55 2,5 C 83 % 1025,7 hPa 0,0 mm W 261 3,2 km/h (1 Bft)
27.02.2019 20:00 2,2 C 83 % 1025,6 hPa 0,0 mm W 262 6,4 km/h (2 Bft)
27.02.2019 20:05 2,2 C 84 % 1025,6 hPa 0,0 mm W 261 6,4 km/h (2 Bft)
27.02.2019 20:10 2,3 C 84 % 1025,6 hPa 0,0 mm W 261 6,4 km/h (2 Bft)
27.02.2019 20:15 2,2 C 84 % 1025,5 hPa 0,0 mm W 262 4,8 km/h (1 Bft)
27.02.2019 20:20 2,1 C 84 % 1025,5 hPa 0,0 mm W 262 4,8 km/h (1 Bft)
27.02.2019 20:25 2,0 C 84 % 1025,5 hPa 0,0 mm W 261 3,2 km/h (1 Bft)
27.02.2019 20:30 1,9 C 84 % 1025,5 hPa 0,0 mm W 261 6,4 km/h (2 Bft)
27.02.2019 20:35 1,9 C 85 % 1025,5 hPa 0,0 mm W 261 4,8 km/h (1 Bft)
27.02.2019 20:40 1,9 C 85 % 1025,4 hPa 0,0 mm W 262 1,6 km/h (1 Bft)
27.02.2019 20:45 1,8 C 85 % 1025,4 hPa 0,0 mm W 262 4,8 km/h (1 Bft)
27.02.2019 20:50 1,8 C 85 % 1025,3 hPa 0,0 mm W 261 4,8 km/h (1 Bft)
27.02.2019 20:55 1,6 C 85 % 1025,4 hPa 0,0 mm W 262 3,2 km/h (1 Bft)
27.02.2019 21:00 1,6 C 85 % 1025,4 hPa 0,0 mm W 262 4,8 km/h (1 Bft)
27.02.2019 21:05 1,6 C 86 % 1025,5 hPa 0,0 mm W 262 4,8 km/h (1 Bft)
27.02.2019 21:10 1,2 C 85 % 1025,4 hPa 0,0 mm W 261 3,2 km/h (1 Bft)
27.02.2019 21:15 0,7 C 86 % 1025,4 hPa 0,0 mm W 262 3,2 km/h (1 Bft)
27.02.2019 21:20 0,8 C 87 % 1025,3 hPa 0,0 mm W 262 3,2 km/h (1 Bft)
27.02.2019 21:25 0,9 C 87 % 1025,3 hPa 0,0 mm W 261 3,2 km/h (1 Bft)
27.02.2019 21:30 0,8 C 87 % 1025,2 hPa 0,0 mm W 261 4,8 km/h (1 Bft)
27.02.2019 21:35 0,9 C 88 % 1025,2 hPa 0,0 mm W 261 4,8 km/h (1 Bft)
27.02.2019 21:40 1,0 C 87 % 1025,2 hPa 0,0 mm W 262 4,8 km/h (1 Bft)
27.02.2019 21:45 0,8 C 87 % 1025,2 hPa 0,0 mm W 262 4,8 km/h (1 Bft)
27.02.2019 21:50 0,8 C 88 % 1025,2 hPa 0,0 mm W 262 4,8 km/h (1 Bft)
27.02.2019 21:55 0,8 C 88 % 1025,1 hPa 0,0 mm W 262 4,8 km/h (1 Bft)
27.02.2019 22:00 0,8 C 88 % 1025,0 hPa 0,0 mm W 262 4,8 km/h (1 Bft)
27.02.2019 22:05 0,6 C 87 % 1025,1 hPa 0,0 mm W 261 4,8 km/h (1 Bft)
27.02.2019 22:10 0,7 C 88 % 1025,0 hPa 0,0 mm W 261 6,4 km/h (2 Bft)
27.02.2019 22:15 0,5 C 88 % 1024,9 hPa 0,0 mm W 261 3,2 km/h (1 Bft)
27.02.2019 22:20 0,5 C 88 % 1024,8 hPa 0,0 mm W 261 3,2 km/h (1 Bft)
27.02.2019 22:25 0,5 C 88 % 1024,7 hPa 0,0 mm W 262 6,4 km/h (2 Bft)
27.02.2019 22:30 0,5 C 88 % 1024,7 hPa 0,0 mm W 262 4,8 km/h (1 Bft)
27.02.2019 22:35 0,6 C 88 % 1024,6 hPa 0,0 mm W 261 4,8 km/h (1 Bft)
27.02.2019 22:40 0,6 C 88 % 1024,6 hPa 0,0 mm W 261 4,8 km/h (1 Bft)
27.02.2019 22:45 0,7 C 88 % 1024,5 hPa 0,0 mm W 261 4,8 km/h (1 Bft)
27.02.2019 22:50 0,6 C 88 % 1024,6 hPa 0,0 mm W 262 3,2 km/h (1 Bft)
27.02.2019 22:55 0,7 C 88 % 1024,4 hPa 0,0 mm W 262 3,2 km/h (1 Bft)
27.02.2019 23:00 0,7 C 88 % 1024,4 hPa 0,0 mm W 261 4,8 km/h (1 Bft)
27.02.2019 23:05 0,7 C 88 % 1024,4 hPa 0,0 mm W 262 6,4 km/h (2 Bft)
27.02.2019 23:10 0,7 C 88 % 1024,4 hPa 0,0 mm W 262 6,4 km/h (2 Bft)
27.02.2019 23:15 0,5 C 88 % 1024,4 hPa 0,0 mm W 262 3,2 km/h (1 Bft)
27.02.2019 23:20 0,4 C 88 % 1024,3 hPa 0,0 mm W 262 0,0 km/h (0 Bft)
27.02.2019 23:25 0,2 C 88 % 1024,3 hPa 0,0 mm W 261 3,2 km/h (1 Bft)
27.02.2019 23:30 0,2 C 88 % 1024,3 hPa 0,0 mm W 262 3,2 km/h (1 Bft)
27.02.2019 23:35 0,2 C 88 % 1024,2 hPa 0,0 mm W 262 0,0 km/h (0 Bft)
27.02.2019 23:40 0,0 C 88 % 1024,2 hPa 0,0 mm W 262 3,2 km/h (1 Bft)
27.02.2019 23:45 0,1 C 89 % 1024,2 hPa 0,0 mm W 262 4,8 km/h (1 Bft)
27.02.2019 23:50 0,2 C 89 % 1024,2 hPa 0,0 mm W 262 4,8 km/h (1 Bft)
27.02.2019 23:55 0,1 C 89 % 1024,1 hPa 0,0 mm W 262 1,6 km/h (1 Bft)
_ Min-Zeit 07:15 15:20 23:55 - - - 01:15
Minimum _ -0,6 C 50 % 1024,1 hPa - - - 0,0 km/h (0 Bft)
_ Max-Zeit 13:55 07:25 00:00 00:00 - - 19:45
Maximum _ 9,9 C 93 % 1032,9 hPa 0,0 mm - - 9,7 km/h
W (2 Bft)
Durchschnitt _ 3,5 C 80 % 1029,0 hPa #0,0 mm W - 2,9 km/h (1 Bft)